DLH271 LIML-EDDF

Flight info

Callsign DLH271
Flight time 0h 58m
Altitude 18000
Route PEPAG N851 ABESI/N0409F300 N851 UTAVO DCT ROLSA DCT LADOL T163 EMPAX EMPAX5B
Aircraft A319/M-SADE2E3FGIJ1LORWXYZ/HB1

Departure

Time 2026-05-07 08:43
Airport Milano Linate Airport (LIML)

Arrival

Time 2026-05-07 09:41
Airport Frankfurt Main Airport (EDDF)
Time Latitude Longitude Altitude Speed Heading
2026-05-07 08:00 45.45984 9.27849 363 ft 0 kts
2026-05-07 08:35 45.45983 9.27849 363 ft 1 kts
2026-05-07 08:35 45.45969 9.27849 362 ft 2 kts
2026-05-07 08:35 45.45953 9.27848 362 ft 2 kts
2026-05-07 08:36 45.45938 9.27848 361 ft 2 kts
2026-05-07 08:36 45.45924 9.27848 360 ft 2 kts
2026-05-07 08:36 45.45913 9.27848 360 ft 0 kts 18°
2026-05-07 08:36 45.45907 9.27840 359 ft 0 kts 80°
2026-05-07 08:37 45.45907 9.27832 359 ft 1 kts 95°
2026-05-07 08:37 45.45908 9.27828 359 ft 0 kts 91°
2026-05-07 08:38 45.45907 9.27830 359 ft 1 kts 91°
2026-05-07 08:38 45.45908 9.27906 361 ft 12 kts 87°
2026-05-07 08:38 45.45880 9.27983 361 ft 4 kts 187°
2026-05-07 08:39 45.45821 9.27985 359 ft 14 kts 180°
2026-05-07 08:39 45.45674 9.27980 356 ft 23 kts 180°
2026-05-07 08:39 45.45504 9.27979 353 ft 24 kts 181°
2026-05-07 08:39 45.45338 9.27942 352 ft 24 kts 205°
2026-05-07 08:40 45.45182 9.27869 353 ft 23 kts 178°
2026-05-07 08:40 45.45021 9.27886 353 ft 23 kts 176°
2026-05-07 08:40 45.44857 9.27938 353 ft 26 kts 169°
2026-05-07 08:40 45.44665 9.27959 350 ft 28 kts 175°
2026-05-07 08:41 45.44467 9.27984 346 ft 28 kts 178°
2026-05-07 08:41 45.44261 9.28002 343 ft 29 kts 176°
2026-05-07 08:41 45.44063 9.28023 341 ft 28 kts 175°
2026-05-07 08:41 45.43867 9.28045 340 ft 27 kts 176°
2026-05-07 08:42 45.43682 9.28067 339 ft 26 kts 175°
2026-05-07 08:42 45.43512 9.28083 338 ft 20 kts 175°
2026-05-07 08:42 45.43445 9.27956 339 ft 18 kts 265°
2026-05-07 08:42 45.43491 9.27817 340 ft 18 kts 350°
2026-05-07 08:43 45.43851 9.27777 344 ft 92 kts 355°
2026-05-07 08:43 45.44735 9.27681 423 ft 151 kts 355°
2026-05-07 08:43 45.45785 9.27574 1049 ft 157 kts 354°
2026-05-07 08:43 45.46883 9.27407 1807 ft 163 kts 352°
2026-05-07 08:44 45.47987 9.27160 2597 ft 165 kts 351°
2026-05-07 08:44 45.49167 9.26990 3169 ft 179 kts 357°
2026-05-07 08:44 45.50465 9.26907 3718 ft 196 kts 358°
2026-05-07 08:44 45.51880 9.26806 4276 ft 213 kts 357°
2026-05-07 08:45 45.53412 9.26666 4829 ft 231 kts 356°
2026-05-07 08:45 45.55102 9.26492 5345 ft 253 kts 356°
2026-05-07 08:45 45.56907 9.26293 5947 ft 271 kts 356°
2026-05-07 08:45 45.58823 9.26077 6783 ft 280 kts 356°
2026-05-07 08:46 45.60754 9.25816 7724 ft 283 kts 352°
2026-05-07 08:46 45.62686 9.25292 8659 ft 287 kts 345°
2026-05-07 08:46 45.64605 9.24520 9582 ft 290 kts 342°
2026-05-07 08:46 45.66524 9.23688 10482 ft 293 kts 342°
2026-05-07 08:47 45.68495 9.22956 11348 ft 297 kts 347°
2026-05-07 08:47 45.70535 9.22449 12207 ft 300 kts 351°
2026-05-07 08:47 45.72578 9.22068 13034 ft 303 kts 352°
2026-05-07 08:47 45.74668 9.21701 13891 ft 305 kts 352°
2026-05-07 08:48 45.76779 9.21329 14751 ft 308 kts 351°
2026-05-07 08:48 45.78892 9.20956 15516 ft 310 kts 351°
2026-05-07 08:48 45.81034 9.20574 16278 ft 314 kts 351°
2026-05-07 08:48 45.83200 9.20161 17027 ft 317 kts 347°
2026-05-07 08:49 45.85305 9.19280 17653 ft 319 kts 335°
2026-05-07 08:49 45.87295 9.17763 18090 ft 330 kts 326°
2026-05-07 08:49 45.89242 9.15924 18545 ft 342 kts 324°
2026-05-07 08:49 45.91243 9.13982 19166 ft 348 kts 324°
2026-05-07 08:50 45.93244 9.12052 19864 ft 351 kts 325°
2026-05-07 08:50 45.95277 9.10105 20559 ft 353 kts 325°
2026-05-07 08:50 45.97385 9.08300 21210 ft 357 kts 333°
2026-05-07 08:50 45.99726 9.07067 21860 ft 362 kts 344°
2026-05-07 08:51 46.02203 9.06442 22498 ft 366 kts 351°
2026-05-07 08:51 46.04760 9.06027 23096 ft 370 kts 352°
2026-05-07 08:51 46.07321 9.05642 23675 ft 374 kts 352°
2026-05-07 08:51 46.09896 9.05246 24246 ft 377 kts 352°
2026-05-07 08:52 46.12503 9.04833 24776 ft 381 kts 352°
2026-05-07 08:52 46.15164 9.04404 25280 ft 385 kts 352°
2026-05-07 08:52 46.17835 9.03998 25771 ft 389 kts 352°
2026-05-07 08:52 46.20550 9.03635 26336 ft 390 kts 353°
2026-05-07 08:53 46.23219 9.03288 26979 ft 388 kts 353°
2026-05-07 08:53 46.25914 9.02936 27598 ft 387 kts 352°
2026-05-07 08:53 46.28558 9.02588 28173 ft 386 kts 352°
2026-05-07 08:53 46.31238 9.02231 28754 ft 385 kts 352°
2026-05-07 08:54 46.33875 9.01877 29309 ft 384 kts 352°
2026-05-07 08:54 46.36534 9.01521 29790 ft 383 kts 352°
2026-05-07 08:54 46.39182 9.01164 29983 ft 384 kts 352°
2026-05-07 08:54 46.41827 9.00808 29995 ft 384 kts 352°
2026-05-07 08:55 46.47157 9.00084 29994 ft 384 kts 352°
2026-05-07 08:55 46.52435 8.99374 29980 ft 383 kts 352°
2026-05-07 08:56 46.57756 8.98654 29975 ft 383 kts 352°
2026-05-07 08:56 46.63032 8.97940 29988 ft 382 kts 352°
2026-05-07 08:57 46.68300 8.97226 30000 ft 382 kts 352°
2026-05-07 08:57 46.73579 8.96510 30011 ft 382 kts 352°
2026-05-07 08:58 46.78869 8.95791 30023 ft 381 kts 353°
2026-05-07 08:58 46.84128 8.95075 30007 ft 381 kts 353°
2026-05-07 08:59 46.89378 8.94359 29987 ft 380 kts 353°
2026-05-07 08:59 46.94668 8.93633 29974 ft 381 kts 353°
2026-05-07 09:00 46.99918 8.92914 29975 ft 380 kts 353°
2026-05-07 09:00 47.05164 8.92193 29977 ft 380 kts 353°
2026-05-07 09:01 47.10414 8.91472 30006 ft 379 kts 353°
2026-05-07 09:01 47.15672 8.90749 30037 ft 379 kts 353°
2026-05-07 09:02 47.20919 8.90026 30048 ft 378 kts 353°
2026-05-07 09:02 47.26124 8.89307 30056 ft 377 kts 354°
2026-05-07 09:03 47.31353 8.89076 30061 ft 378 kts
2026-05-07 09:03 47.36603 8.89428 30057 ft 377 kts
2026-05-07 09:04 47.41795 8.89815 30059 ft 376 kts
2026-05-07 09:04 47.47029 8.90198 30056 ft 376 kts
2026-05-07 09:05 47.52231 8.90577 30064 ft 375 kts
2026-05-07 09:05 47.57426 8.90956 30060 ft 374 kts
2026-05-07 09:06 47.62592 8.91332 30056 ft 374 kts
2026-05-07 09:06 47.67796 8.91713 30056 ft 374 kts
2026-05-07 09:07 47.72964 8.92090 30055 ft 374 kts
2026-05-07 09:07 47.78138 8.92468 30053 ft 374 kts
2026-05-07 09:08 47.83331 8.92851 30037 ft 373 kts
2026-05-07 09:08 47.88497 8.93231 30045 ft 373 kts
2026-05-07 09:09 47.93675 8.93615 30026 ft 373 kts
2026-05-07 09:09 47.98862 8.94000 30024 ft 373 kts
2026-05-07 09:10 48.04032 8.94383 30010 ft 374 kts
2026-05-07 09:10 48.09219 8.94768 30003 ft 373 kts
2026-05-07 09:11 48.14396 8.95154 30001 ft 373 kts
2026-05-07 09:11 48.19559 8.95741 30000 ft 373 kts
2026-05-07 09:12 48.24705 8.96525 29999 ft 373 kts
2026-05-07 09:12 48.29817 8.97308 29648 ft 371 kts
2026-05-07 09:13 48.32391 8.97701 29372 ft 368 kts
2026-05-07 09:13 48.34892 8.98082 29017 ft 363 kts
2026-05-07 09:13 48.37391 8.98462 28513 ft 361 kts
2026-05-07 09:13 48.39864 8.98840 27920 ft 362 kts
2026-05-07 09:14 48.42377 8.99224 27278 ft 363 kts
2026-05-07 09:14 48.44873 8.99605 26623 ft 365 kts
2026-05-07 09:14 48.47391 8.99990 25960 ft 366 kts
2026-05-07 09:14 48.49923 9.00375 25355 ft 366 kts
2026-05-07 09:15 48.52476 9.00764 25070 ft 369 kts
2026-05-07 09:15 48.55002 9.01150 24764 ft 367 kts
2026-05-07 09:15 48.57543 9.01540 24145 ft 368 kts
2026-05-07 09:15 48.60067 9.01928 23507 ft 367 kts
2026-05-07 09:16 48.62613 9.02338 23001 ft 364 kts
2026-05-07 09:16 48.65111 9.02884 22497 ft 361 kts
2026-05-07 09:16 48.67559 9.03463 21982 ft 359 kts
2026-05-07 09:16 48.70024 9.04055 21462 ft 357 kts
2026-05-07 09:17 48.72441 9.04634 20951 ft 355 kts
2026-05-07 09:17 48.74868 9.05216 20462 ft 353 kts
2026-05-07 09:17 48.77277 9.05794 20072 ft 349 kts
2026-05-07 09:17 48.79682 9.06369 19939 ft 351 kts
2026-05-07 09:18 48.82083 9.06945 19662 ft 347 kts
2026-05-07 09:18 48.84462 9.07515 19177 ft 346 kts
2026-05-07 09:18 48.86821 9.08079 18669 ft 345 kts
2026-05-07 09:18 48.89178 9.08548 18230 ft 341 kts
2026-05-07 09:19 48.91534 9.08900 17774 ft 339 kts
2026-05-07 09:19 48.93850 9.09227 17338 ft 337 kts
2026-05-07 09:19 48.96166 9.09552 16890 ft 335 kts
2026-05-07 09:19 48.98486 9.09880 16436 ft 333 kts
2026-05-07 09:20 49.00799 9.10211 16012 ft 331 kts
2026-05-07 09:20 49.03070 9.10533 15577 ft 329 kts
2026-05-07 09:20 49.05348 9.10856 15134 ft 328 kts
2026-05-07 09:20 49.07585 9.11172 14698 ft 326 kts
2026-05-07 09:21 49.09827 9.11492 14249 ft 324 kts
2026-05-07 09:21 49.12089 9.11817 13796 ft 323 kts
2026-05-07 09:21 49.14302 9.12135 13367 ft 321 kts
2026-05-07 09:21 49.16519 9.12454 12948 ft 319 kts
2026-05-07 09:22 49.18715 9.12769 12533 ft 317 kts
2026-05-07 09:22 49.20899 9.13082 12106 ft 315 kts
2026-05-07 09:22 49.23069 9.13394 11669 ft 313 kts
2026-05-07 09:22 49.25219 9.13702 11230 ft 311 kts
2026-05-07 09:23 49.27385 9.14046 10782 ft 310 kts
2026-05-07 09:23 49.29496 9.14574 10470 ft 304 kts
2026-05-07 09:23 49.31519 9.15252 10285 ft 294 kts 10°
2026-05-07 09:23 49.33492 9.15951 10075 ft 286 kts 10°
2026-05-07 09:24 49.35419 9.16638 9994 ft 285 kts 10°
2026-05-07 09:24 49.37438 9.17351 10000 ft 309 kts 10°
2026-05-07 09:24 49.39562 9.18101 9994 ft 318 kts 10°
2026-05-07 09:24 49.41717 9.18868 9994 ft 319 kts 10°
2026-05-07 09:25 49.43884 9.19641 9990 ft 320 kts 10°
2026-05-07 09:25 49.46041 9.20410 9991 ft 320 kts 10°
2026-05-07 09:25 49.48220 9.21186 9998 ft 320 kts 10°
2026-05-07 09:25 49.50376 9.21857 9984 ft 318 kts
2026-05-07 09:26 49.52596 9.21883 9984 ft 316 kts 355°
2026-05-07 09:26 49.54784 9.21687 9984 ft 316 kts 354°
2026-05-07 09:26 49.56973 9.21449 9989 ft 316 kts 353°
2026-05-07 09:26 49.59162 9.21201 9989 ft 315 kts 353°
2026-05-07 09:27 49.61335 9.20948 9994 ft 315 kts 353°
2026-05-07 09:27 49.63533 9.20690 9996 ft 314 kts 353°
2026-05-07 09:27 49.67880 9.20189 9867 ft 310 kts 353°
2026-05-07 09:28 49.70020 9.19948 9469 ft 306 kts 353°
2026-05-07 09:28 49.72091 9.19719 9280 ft 295 kts 353°
2026-05-07 09:28 49.74114 9.19494 9093 ft 285 kts 353°
2026-05-07 09:28 49.76055 9.19279 8901 ft 276 kts 353°
2026-05-07 09:29 49.77936 9.19068 8585 ft 272 kts 353°
2026-05-07 09:29 49.79823 9.18850 8209 ft 270 kts 353°
2026-05-07 09:29 49.81688 9.18623 7844 ft 268 kts 352°
2026-05-07 09:29 49.83508 9.18111 7487 ft 265 kts 345°
2026-05-07 09:30 49.85278 9.17416 7123 ft 264 kts 344°
2026-05-07 09:30 49.87036 9.16689 6766 ft 262 kts 343°
2026-05-07 09:30 49.88802 9.15949 6407 ft 260 kts 343°
2026-05-07 09:30 49.90533 9.15221 6046 ft 259 kts 343°
2026-05-07 09:31 49.92277 9.14486 5683 ft 257 kts 343°
2026-05-07 09:31 49.93983 9.13765 5324 ft 256 kts 343°
2026-05-07 09:31 49.95686 9.13040 5027 ft 253 kts 343°
2026-05-07 09:31 49.97388 9.12312 4997 ft 255 kts 343°
2026-05-07 09:32 49.99098 9.11575 4990 ft 252 kts 344°
2026-05-07 09:32 50.00732 9.10867 4990 ft 236 kts 343°
2026-05-07 09:32 50.02267 9.10201 4991 ft 225 kts 343°
2026-05-07 09:32 50.03771 9.09551 4994 ft 224 kts 343°
2026-05-07 09:33 50.05284 9.08896 4991 ft 225 kts 343°
2026-05-07 09:33 50.06776 9.08252 4990 ft 224 kts 343°
2026-05-07 09:33 50.08294 9.07596 4996 ft 224 kts 343°
2026-05-07 09:33 50.09715 9.06691 4986 ft 223 kts 323°
2026-05-07 09:34 50.10651 9.04770 4994 ft 226 kts 293°
2026-05-07 09:34 50.11091 9.02405 4997 ft 228 kts 285°
2026-05-07 09:34 50.11421 8.99996 4996 ft 228 kts 284°
2026-05-07 09:34 50.11731 8.97582 4994 ft 228 kts 284°
2026-05-07 09:35 50.12046 8.95145 4995 ft 228 kts 284°
2026-05-07 09:35 50.12267 8.92660 4993 ft 230 kts 276°
2026-05-07 09:35 50.12340 8.90239 4980 ft 218 kts 275°
2026-05-07 09:35 50.12350 8.87969 4984 ft 204 kts 270°
2026-05-07 09:36 50.12145 8.85825 4942 ft 194 kts 260°
2026-05-07 09:36 50.11799 8.83868 4764 ft 187 kts 257°
2026-05-07 09:36 50.11409 8.81922 4479 ft 185 kts 255°
2026-05-07 09:36 50.10995 8.80044 4199 ft 183 kts 254°
2026-05-07 09:37 50.10564 8.78201 3926 ft 180 kts 253°
2026-05-07 09:37 50.10133 8.76396 3659 ft 178 kts 253°
2026-05-07 09:37 50.09698 8.74602 3400 ft 176 kts 253°
2026-05-07 09:37 50.09271 8.72842 3153 ft 175 kts 253°
2026-05-07 09:38 50.08836 8.71050 2904 ft 174 kts 252°
2026-05-07 09:38 50.08416 8.69318 2654 ft 168 kts 253°
2026-05-07 09:38 50.08018 8.67675 2416 ft 157 kts 253°
2026-05-07 09:38 50.07643 8.66129 2199 ft 146 kts 253°
2026-05-07 09:39 50.07305 8.64732 1991 ft 134 kts 254°
2026-05-07 09:39 50.06985 8.63396 1813 ft 132 kts 254°
2026-05-07 09:39 50.06666 8.62066 1631 ft 129 kts 253°
2026-05-07 09:39 50.06352 8.60756 1448 ft 129 kts 253°
2026-05-07 09:40 50.06044 8.59471 1266 ft 127 kts 252°
2026-05-07 09:40 50.05734 8.58183 1074 ft 129 kts 253°
2026-05-07 09:40 50.05417 8.56864 894 ft 129 kts 252°
2026-05-07 09:40 50.05107 8.55574 703 ft 128 kts 252°
2026-05-07 09:41 50.04797 8.54282 515 ft 128 kts 253°
2026-05-07 09:41 50.04492 8.52987 370 ft 127 kts 250°
2026-05-07 09:41 50.04239 8.51936 355 ft 65 kts 249°
2026-05-07 09:41 50.04084 8.51503 358 ft 34 kts 224°
2026-05-07 09:42 50.03997 8.51394 358 ft 8 kts 218°
2026-05-07 09:42 50.03986 8.51381 358 ft 0 kts 219°
2026-05-07 09:43 50.03909 8.51386 357 ft 21 kts 121°
2026-05-07 09:43 50.03943 8.51596 356 ft 22 kts 70°
2026-05-07 09:43 50.04003 8.51847 355 ft 24 kts 69°
2026-05-07 09:43 50.04064 8.52102 353 ft 25 kts 70°
2026-05-07 09:44 50.04125 8.52355 355 ft 24 kts 70°
2026-05-07 09:44 50.04180 8.52589 357 ft 23 kts 70°
2026-05-07 09:44 50.04237 8.52830 355 ft 24 kts 70°
2026-05-07 09:44 50.04299 8.53086 350 ft 26 kts 70°
2026-05-07 09:45 50.04364 8.53356 348 ft 26 kts 69°
2026-05-07 09:45 50.04404 8.53629 349 ft 25 kts 84°
2026-05-07 09:45 50.04422 8.53898 351 ft 24 kts 84°
2026-05-07 09:45 50.04440 8.54165 352 ft 24 kts 84°
2026-05-07 09:46 50.04456 8.54426 351 ft 24 kts 90°
2026-05-07 09:46 50.04396 8.54671 350 ft 24 kts 130°
2026-05-07 09:46 50.04248 8.54809 348 ft 25 kts 162°
2026-05-07 09:46 50.04118 8.54882 347 ft 12 kts 160°
2026-05-07 09:47 50.04047 8.54923 346 ft 13 kts 158°
2026-05-07 09:47 50.04031 8.55071 348 ft 15 kts 69°
2026-05-07 09:47 50.04079 8.55267 352 ft 21 kts 70°
2026-05-07 09:47 50.04129 8.55479 354 ft 20 kts 70°
2026-05-07 09:48 50.04180 8.55696 352 ft 21 kts 69°
2026-05-07 09:48 50.04232 8.55908 354 ft 20 kts 69°
2026-05-07 09:48 50.04342 8.55930 358 ft 18 kts 339°
2026-05-07 09:48 50.04479 8.55933 361 ft 20 kts 18°
2026-05-07 09:49 50.04578 8.56060 361 ft 20 kts 71°
2026-05-07 09:49 50.04627 8.56266 361 ft 18 kts 69°
2026-05-07 09:49 50.04670 8.56447 364 ft 14 kts 70°
2026-05-07 09:49 50.04715 8.56573 367 ft 11 kts 53°
2026-05-07 09:50 50.04766 8.56608 368 ft 9 kts 341°
2026-05-07 09:50 50.04805 8.56586 368 ft 0 kts 340°